Change the Weather History Date:

Friday, September 6, 2013

  Actual Average (KJAX) Record (KJAX)
Temperature  
Mean Temperature 81 °F 80 °F  
Max Temperature 91 °F 89 °F 98 °F (1875)
Min Temperature 71 °F 71 °F 61 °F (1997)
Degree Days  
Heating Degree Days 0 0  
Month to date heating degree days 0  
Since 1 July heating degree days 0  
Cooling Degree Days 16 15  
Month to date cooling degree days 91  
Year to date cooling degree days 2081  
Growing Degree Days 31 (Base 50)    
Moisture  
Dew Point 73 °F    
Average Humidity 97    
Maximum Humidity 100    
Minimum Humidity 59    
Precipitation  
Precipitation 0.00 in 0.29 in 5.92 in (1950)
Month to date precipitation 1.73  
Year to date precipitation 37.09  
Snow  
Snow 0.00 in 0.00 in 0.00 in (2002)
Month to date snowfall 0.0  
Since 1 July snowfall 0.0  
Since 1 September snowfall 0.0  
Snow Depth -    
Sea Level Pressure  
Sea Level Pressure 30.05 in    
Wind  
Wind Speed 1 mph (North)    
Max Wind Speed 22 mph    
Max Gust Speed 30 mph    
Visibility 6 miles    
Events Rain , Thunderstorm    
T = Trace of Precipitation, MM = Missing Value Source: NWS Daily Summary

Daily Weather History Graph

Daily Weather History Graph

Search for Another Location

Airport or City:

Trip Planner

Search our weather history database for the weather conditions in past years. The results will help you decide how hot, cold, wet, or windy it might be!

Date:

Astronomy

Sep. 06, 2013 Rise Set
Actual Time 7:07 AM EDT 7:43 PM EDT
Civil Twilight 6:42 AM EDT 8:07 PM EDT
Nautical Twilight 6:14 AM EDT 8:36 PM EDT
Astronomical Twilight 5:45 AM EDT 9:05 PM EDT
Moon 8:09 AM EDT (9/6) 8:18 PM EDT (9/6)
Length of Visible Light 13h 25m
Length of Day
12h 36m
New Moon, 1% of the Moon is Illuminated
Sep 6
New Moon
Sep 12
First Quarter
Sep 19
Full
Sep 26
Last Quarter
Oct 4
New

Hourly Weather History & Observations

Time (EDT) Temp. Heat Index Dew Point Humidity Pressure Visibility Wind Dir Wind Speed Gust Speed Precip Events Conditions
12:15 AM 75.2 °F - 75.2 °F 100% 30.07 in 6.0 mi Calm Calm - N/A   Clear
12:35 AM 73.4 °F - 73.4 °F 100% 30.07 in 5.0 mi Calm Calm - N/A   Clear
12:55 AM 73.4 °F - 73.4 °F 100% 30.07 in 5.0 mi Calm Calm - N/A   Clear
1:15 AM 73.4 °F - 73.4 °F 100% 30.07 in 7.0 mi Calm Calm - N/A   Clear
1:35 AM 73.4 °F - 73.4 °F 100% 30.07 in 5.0 mi Calm Calm - N/A   Partly Cloudy
1:55 AM 73.4 °F - 73.4 °F 100% 30.07 in 6.0 mi Calm Calm - N/A   Partly Cloudy
2:15 AM 73.4 °F - 73.4 °F 100% 30.06 in 6.0 mi Calm Calm - N/A   Mostly Cloudy
2:35 AM 73.4 °F - 73.4 °F 100% 30.06 in 7.0 mi Calm Calm - N/A   Mostly Cloudy
2:55 AM 73.4 °F - 73.4 °F 100% 30.05 in 5.0 mi Calm Calm - N/A   Partly Cloudy
3:15 AM 73.4 °F - 73.4 °F 100% 30.05 in 5.0 mi Calm Calm - N/A   Clear
3:35 AM 73.4 °F - 73.4 °F 100% 30.04 in 5.0 mi Calm Calm - N/A   Clear
3:55 AM 73.4 °F - 73.4 °F 100% 30.04 in 5.0 mi Calm Calm - N/A   Clear
4:15 AM 73.4 °F - 73.4 °F 100% 30.03 in 5.0 mi Calm Calm - N/A   Clear
4:35 AM 73.4 °F - 73.4 °F 100% 30.03 in 4.0 mi Calm Calm - N/A   Clear
4:55 AM 73.4 °F - 73.4 °F 100% 30.03 in 3.0 mi Calm Calm - N/A   Clear
5:15 AM 71.6 °F - 71.6 °F 100% 30.04 in 3.0 mi Calm Calm - N/A   Clear
5:35 AM 71.6 °F - 71.6 °F 100% 30.04 in 2.5 mi Calm Calm - N/A   Clear
5:55 AM 71.6 °F - 71.6 °F 100% 30.04 in 3.0 mi Calm Calm - N/A   Clear
6:15 AM 71.6 °F - 71.6 °F 100% 30.05 in 3.0 mi Calm Calm - N/A   Clear
6:35 AM 71.6 °F - 71.6 °F 100% 30.05 in 3.0 mi Calm Calm - N/A   Clear
6:50 AM 71.6 °F - 71.6 °F 100% 30.05 in 7.0 mi Calm Calm - N/A   Clear
7:50 AM 71.6 °F - 71.6 °F 100% 30.06 in 10.0 mi Calm Calm - N/A   Clear
8:50 AM 77.0 °F - 77.0 °F 100% 30.07 in 10.0 mi Calm Calm - N/A   Clear
9:50 AM 80.6 °F 87.1 °F 77.0 °F 89% 30.08 in 10.0 mi Calm Calm - N/A   Clear
10:50 AM 82.4 °F 90.9 °F 77.0 °F 84% 30.07 in 10.0 mi ENE 4.6 mph - N/A   Clear
11:50 AM 86.0 °F 96.9 °F 77.0 °F 74% 30.07 in 10.0 mi ENE 4.6 mph - N/A   Mostly Cloudy
12:50 PM 87.8 °F 97.6 °F 75.2 °F 66% 30.06 in 10.0 mi ESE 4.6 mph - N/A   Mostly Cloudy
1:50 PM 91.4 °F 102.5 °F 75.2 °F 59% 30.03 in 10.0 mi NE 4.6 mph - N/A   Mostly Cloudy
2:21 PM 82.4 °F 89.5 °F 75.2 °F 79% 30.04 in 2.0 mi North 21.9 mph 29.9 mph N/A Rain , Thunderstorm Thunderstorms and Rain
2:50 PM 71.6 °F - 71.6 °F 100% 30.05 in 1.0 mi North 21.9 mph 29.9 mph N/A Rain , Thunderstorm Thunderstorms and Rain
3:50 PM 71.6 °F - 71.6 °F 100% 30.01 in 7.0 mi Calm Calm - N/A   Overcast
4:50 PM 71.6 °F - 71.6 °F 100% 30.00 in 5.0 mi Calm Calm - N/A   Overcast
5:50 PM 73.4 °F - 73.4 °F 100% 30.03 in 6.0 mi Variable 3.5 mph - N/A   Overcast
6:50 PM 73.4 °F - 73.4 °F 100% 30.04 in 4.0 mi Calm Calm - N/A   Overcast
7:50 PM 73.4 °F - 73.4 °F 100% 30.04 in 5.0 mi Calm Calm - N/A   Overcast
8:15 PM 73.4 °F - 73.4 °F 100% 30.04 in 7.0 mi Calm Calm - N/A   Clear
8:35 PM 71.6 °F - 71.6 °F 100% 30.04 in 7.0 mi Calm Calm - N/A   Clear
8:55 PM 71.6 °F - 71.6 °F 100% 30.03 in 7.0 mi Calm Calm - N/A   Clear
9:15 PM 71.6 °F - 71.6 °F 100% 30.02 in 5.0 mi Calm Calm - N/A   Clear
9:35 PM 71.6 °F - 71.6 °F 100% 30.03 in 6.0 mi Calm Calm - N/A   Clear
9:55 PM 71.6 °F - 71.6 °F 100% 30.04 in 8.0 mi Calm Calm - N/A   Clear
10:15 PM 71.6 °F - 71.6 °F 100% 30.04 in 10.0 mi Calm Calm - N/A   Clear
10:35 PM 71.6 °F - 71.6 °F 100% 30.04 in 9.0 mi Calm Calm - N/A   Clear
10:55 PM 71.6 °F - 71.6 °F 100% 30.04 in 10.0 mi Calm Calm - N/A   Clear
11:15 PM 71.6 °F - 71.6 °F 100% 30.04 in 9.0 mi NW 3.5 mph - N/A   Clear
11:35 PM 71.6 °F - 71.6 °F 100% 30.04 in 8.0 mi WNW 3.5 mph - N/A   Clear
11:55 PM 71.6 °F - 71.6 °F 100% 30.04 in 10.0 mi WNW 3.5 mph - N/A   Clear